IXPE

Last updated on Mon Sep 21 2026 00:03:33 GMT+0000 (Coordinated Universal Time)

1 49954U 21121A 26263.66668981 .00009052 00000+0 47161-3 0 9994 2 49954 0.2315 314.9415 0006860 88.1914 356.9860 15.11005367 5654
UTC large
Height (km)
Speed (km/s)
/
Latitude / Longitude
Inclination (degrees)
Orbital Period (minutes)
Azimuth
Elevation
Range (km)
Doppler Factor

Next 0 passes for location: London (51.5072 / 0.1276)

No passes found over London.
IXPE